Content
SEND FEEDBACK

Daily
Averages
Monthly
Summary
United States of America

EARTH CITY, MISSOURI


Home > North America > United States > Missouri
Elevation: 476 feet     Latitude: 38 46N     Longitude: 090 30W

WEATHER
 
SELECT A DAY
Number of Records: 208,231;   Date Range: 1/1/95 - 12/17/14
 
SHARE

PRINT THIS DATA

[ ← Previous Day ]
WEATHER ALMANAC - FEBRUARY 15, 2013
[ Next Day → ]
[ °C ]   °F
Weather ElementAverageHighLow
Temperature34.2 °F39.9 °F (1:51 am)28 °F (11:51 pm)
Dewpoint17.1 °F26.1 °F (1:51 am)10.9 °F (2:51 pm)
Humidity51.6 %79 % (5:51 am)32 % (2:51 pm)
Barometer30.24 in30.30 in (9:51 am)30.10 in (1:51 am)
Wind Speed10.5 mph18.4 mph (7:43 am)
Wind Gust25.3 mph (7:51 am)
Weather ElementAverage
Visibility10 mi
Wind DirectionNW (316 °)

Weather ElementTotal
Precipitation---
Heating Degree Days31.1 (Base 65)
Averaged from 25 records on February 15, 2013
WEATHER CONDITIONS BREAKOUT
WIND DIRECTION BREAKOUT
WEATHER BY HOUR - FEBRUARY 15, 2013
[ °C ]   °F
Local TimeTemperatureDewpointHumidityBarometerVisibilityWind DirectionWind SpeedGust SpeedPrecipitationEventsConditions
1:51 AM39.9 °F26.1 °F58 %30.10 in10.0 miNW (310°)9.2 mphMostly Cloudy
2:51 AM37.9 °F26.1 °F62 %30.11 in10.0 miNW (310°)8.1 mphMostly Cloudy
3:51 AM35.1 °F25.0 °F67 %30.14 in10.0 miNW (320°)9.2 mphMostly Cloudy
4:51 AM34.0 °F26.1 °F73 %30.17 in10.0 miWNW (290°)6.9 mphMostly Cloudy
5:51 AM30.9 °F25.0 °F79 %30.19 in10.0 miNW (310°)5.8 mphScattered Clouds
6:20 AM32.0 °F24.8 °F75 %30.18 in10.0 miWNW (300°)6.9 mphMostly Cloudy
6:51 AM32.0 °F23.0 °F69 %30.22 in10.0 miNW (320°)17.3 mph23.0 mphMostly Cloudy
7:43 AM30.2 °F19.4 °F64 %30.23 in10.0 miNW (320°)18.4 mphMostly Cloudy
7:51 AM30.0 °F19.0 °F64 %30.26 in10.0 miNW (310°)16.1 mph25.3 mphMostly Cloudy
8:51 AM30.0 °F17.1 °F59 %30.29 in10.0 miNNW (330°)16.1 mphScattered Clouds
9:51 AM32.0 °F14.0 °F48 %30.30 in10.0 miWNW (300°)15.0 mph23.0 mphPartly Cloudy
10:51 AM35.1 °F12.9 °F40 %30.30 in10.0 miNW (320°)12.7 mph23.0 mphPartly Cloudy
11:51 AM37.0 °F12.0 °F36 %30.29 in10.0 miNW (320°)11.5 mph21.9 mphPartly Cloudy
12:51 PM37.0 °F12.0 °F36 %30.27 in10.0 miNNW (330°)16.1 mphClear
1:51 PM37.9 °F12.9 °F36 %30.26 in10.0 miNNW (340°)15.0 mphPartly Cloudy
2:51 PM39.0 °F10.9 °F32 %30.26 in10.0 miNorth (350°)13.8 mph21.9 mphScattered Clouds
3:51 PM39.0 °F12.0 °F33 %30.26 in10.0 miWNW (290°)4.6 mphScattered Clouds
4:51 PM39.0 °F12.0 °F33 %30.26 in9.0 miNW (320°)5.8 mphScattered Clouds
5:51 PM35.1 °F12.9 °F40 %30.27 in10.0 miWNW (290°)8.1 mphScattered Clouds
6:51 PM33.1 °F12.9 °F43 %30.28 in10.0 miWNW (300°)5.8 mphScattered Clouds
7:51 PM34.0 °F14.0 °F44 %30.27 in10.0 miNW (310°)3.5 mphMostly Cloudy
8:51 PM32.0 °F15.1 °F50 %30.28 in10.0 miWNW (300°)4.6 mphMostly Cloudy
9:51 PM34.0 °F14.0 °F44 %30.27 in10.0 miNW (320°)11.5 mphMostly Cloudy
10:51 PM30.9 °F14.0 °F50 %30.27 in10.0 miNNW (340°)11.5 mphMostly Cloudy
11:51 PM28.0 °F14.0 °F56 %30.26 in10.0 miNorth (350°)9.2 mphScattered Clouds
Hourly data recorded from KSTL, located miles away from Earth City, Missouri







STORIES FROM OUR PARTNERS